TimeAKDT,TemperatureF,Dew PointF,Humidity,Sea Level PressureIn,VisibilityMPH,Wind Direction,Wind SpeedMPH,Gust SpeedMPH,PrecipitationIn,Events,Conditions,WindDirDegrees,DateUTC
12:56 AM,53.1,46.9,80,29.32,10.0,SE,23.0,29.9,0.01,,Overcast,130,2013-09-24 08:56:00
1:56 AM,54.0,48.0,80,29.28,10.0,SE,17.3,-,N/A,,Overcast,130,2013-09-24 09:56:00
2:56 AM,55.9,50.0,80,29.24,10.0,SSE,6.9,-,N/A,,Overcast,150,2013-09-24 10:56:00
3:17 AM,57.2,51.8,82,29.21,10.0,SSE,9.2,17.3,N/A,,Overcast,150,2013-09-24 11:17:00
3:56 AM,57.9,51.1,78,29.22,10.0,SE,11.5,23.0,N/A,,Overcast,140,2013-09-24 11:56:00
4:56 AM,60.1,48.9,67,29.22,10.0,SSW,21.9,32.2,N/A,,Clear,210,2013-09-24 12:56:00
5:56 AM,57.9,46.0,65,29.24,10.0,SSW,21.9,32.2,N/A,,Clear,210,2013-09-24 13:56:00
6:56 AM,55.9,42.1,60,29.24,10.0,SSW,25.3,34.5,N/A,,Clear,200,2013-09-24 14:56:00
7:56 AM,53.1,41.0,64,29.25,10.0,SW,24.2,31.1,N/A,,Clear,220,2013-09-24 15:56:00
8:56 AM,53.1,39.9,61,29.27,10.0,SSW,19.6,-,N/A,,Mostly Cloudy,210,2013-09-24 16:56:00
9:56 AM,53.1,37.9,57,29.29,10.0,SW,23.0,31.1,N/A,,Mostly Cloudy,220,2013-09-24 17:56:00
10:56 AM,53.1,37.9,57,29.28,10.0,SSW,18.4,27.6,N/A,,Mostly Cloudy,210,2013-09-24 18:56:00
11:56 AM,53.1,39.0,59,29.27,10.0,SSW,20.7,27.6,N/A,,Mostly Cloudy,210,2013-09-24 19:56:00
12:56 PM,53.1,39.0,59,29.25,10.0,SSW,13.8,23.0,N/A,,Mostly Cloudy,210,2013-09-24 20:56:00
1:56 PM,53.1,42.1,66,29.22,10.0,SSE,10.4,24.2,0.00,Rain,Light Rain,160,2013-09-24 21:56:00
2:56 PM,52.0,44.1,74,29.17,10.0,SSE,11.5,18.4,0.01,Rain,Light Rain,160,2013-09-24 22:56:00
3:56 PM,54.0,39.0,57,29.15,10.0,SW,19.6,31.1,0.01,Rain,Light Rain,220,2013-09-24 23:56:00
4:56 PM,51.1,42.1,71,29.12,9.0,SSW,19.6,28.8,0.00,Rain,Light Rain,210,2013-09-25 00:56:00
5:56 PM,51.1,42.1,71,29.07,10.0,South,15.0,23.0,0.01,Rain,Light Rain,180,2013-09-25 01:56:00
6:56 PM,51.1,42.1,71,29.03,10.0,SSW,19.6,23.0,0.02,Rain,Light Rain,200,2013-09-25 02:56:00
8:56 PM,51.1,42.1,71,29.02,10.0,SW,11.5,20.7,0.01,Rain,Light Rain,220,2013-09-25 04:56:00
9:56 PM,51.1,43.0,74,29.03,10.0,SW,18.4,-,0.00,Rain,Light Rain,230,2013-09-25 05:56:00
11:41 PM,48.2,42.8,82,29.06,10.0,SSW,17.3,26.5,0.02,Rain,Light Rain,200,2013-09-25 07:41:00
11:56 PM,50.0,42.1,74,29.08,10.0,SSW,21.9,33.4,0.02,Rain,Light Rain,210,2013-09-25 07:56:00